Miscellaneous Local Product
Issued by NWS North Platte, NE

Home | Current Version | Previous Version | Graphics & Text | Print | Product List | Glossary On
Versions: 1 2 3 4 5 6 7 8 9 10 11 12 13 14 15 16 17 18 19 20 21 22 23 24 25 26 27 28 29 30 31 32 33 34 35 36 37 38 39 40 41 42 43 44 45 46 47 48 49 50
000
AXUS43 KLBF 010710
MISLBF


WESTERN AND NORTH CENTRAL NEBRASKA HOURLY WEATHER ROUNDUP
NATIONAL WEATHER SERVICE NORTH PLATTE NE
200 AM CDT WED APR 01 2015

***STATIONS NOT REPORTING VARIABLES SUCH AS SKY/WEATHER OR
PRESSURE ARE PROVIDED BY THE NEBRASKA DEPARTMENT OF
ROADS...RAWS...AND APRS NETWORKS...AND ARE NOT UNDER
NATIONAL WEATHER SERVICE QUALITY CONTROL***

...OBSERVATIONS IN AND NEAR THE EASTERN PANHANDLE OF NEBRASKA...

CITY           SKY/WX    TMP DP  RH WIND       PRES   REMARKS
PINE RIDGE     MOCLDY    61  18  18 S18G24    29.59F
CHADRON        MOCLDY    61  22  22 W10       29.60S
ALLIANCE       PTCLDY    43  21  41 S12       29.67F
SIDNEY         CLEAR     53  23  31 SW13      29.74F
WHITECLAY        N/A     58  22  24 S8          N/A
CRESCENT LAKE    N/A     58  22  25 S10         N/A
BIG SPRINGS      N/A     59  24  26 S20         N/A
$$

...OBSERVATIONS IN NORTH CENTRAL NEBRASKA...

CITY           SKY/WX    TMP DP  RH WIND       PRES   REMARKS
VALENTINE      PTCLDY    60  26  27 S20       29.63F
THEDFORD       PTCLDY    60  30  32 S12       29.71S
AINSWORTH      PTCLDY    57  29  34 S16       29.66F
O`NEILL        PTCLDY    58  32  37 S12       29.71F
ORD            CLEAR     58  31  35 S13       29.73F
BROKEN BOW     CLEAR     61  32  33 S18G25    29.73F
BROWNLEE         N/A     59  29  32 S15         N/A
SPRINGVIEW       N/A     60  31  33 SW10G20     N/A
BREWSTER         N/A     64  32  29 S18         N/A
ROSE             N/A     61  35  38 E13         N/A
NEWPORT          N/A     61  32  34 S16         N/A
SARGENT          N/A     58  31  35 S5          N/A
COMSTOCK         N/A     62  33  34 S14         N/A
EWING            N/A     57  35  43 S6G13       N/A
$$

...OBSERVATIONS IN SOUTHWEST NEBRASKA AND FAR NORTHEAST COLORADO...

CITY           SKY/WX    TMP DP  RH WIND       PRES   REMARKS
WRAY           FAIR      61  31  32 S17G25    29.76F
IMPERIAL         N/A     58  27  30 S16       29.75F
OGALLALA       CLEAR     51  23  33 W6        29.73S
NORTH PLATTE   CLEAR     57  28  33 S9        29.73F
MCCOOK         CLEAR     59  32  36 SW8       29.76F
LEXINGTON      CLEAR     61  31  32 S20       29.76S
PAXTON           N/A     54  26  34 S12         N/A
SUTHERLAND       N/A     50  25  37 S16         N/A
BRADY            N/A     57  31  37 CALM        N/A
GOTHENBURG       N/A     63  29  28 S9          N/A
CALLAWAY         N/A     57  33  41 S16         N/A
$$

...NORTH PLATTE AREA...

CITY           SKY/WX    TMP DP  RH WIND       PRES   REMARKS
AIRPORT        CLEAR     57  28  33 S9        29.73F
DOWNTOWN         N/A     57  30  35 S8          N/A
$$

...SOME WEATHER OBSERVATIONS FROM AROUND THE REGION...

CITY           SKY/WX    TMP DP  RH WIND       PRES   REMARKS
DENVER         PTCLDY    54  24  31 SW15      29.80R
LARAMIE        MOCLDY    41  18  39 S6        29.85F
CHEYENNE       MOCLDY    45  21  38 W10       29.79F
SCOTTSBLUFF    PTCLDY    63  20  19 SW14      29.66F
RAPID CITY     MOCLDY    54  23  30 SE5       29.53F
PIERRE         CLOUDY    58  26  29 SE5       29.53F
WINNER         FAIR      65  26  23 S21       29.60F
SIOUX FALLS    MOCLDY    59  31  34 S18G25    29.72F
OMAHA          CLEAR     58  33  39 S10       29.83F
GRAND ISLAND   CLEAR     56  32  40 S17       29.78F
KANSAS CITY    CLEAR     54  33  45 SE12      29.91F
WICHITA        CLOUDY    64  44  48 SE10      29.86F
HAYS           CLEAR     57  36  44 S15       29.83S
LIBERAL        CLEAR     57  43  58 SE9       29.86S
GOODLAND       CLEAR     52  33  48 S13       29.81F
$$



USA.gov is the U.S. government's official web portal to all federal, state and local government web resources and services.